Cloud_Cover
5 37 100 100 100 100 100 100 100 98 44 95 95 100 100 100 100 71 52 95 63 74 42 99 99 30 28 100 100 100 100 100 5 5 20 100 100 88 0 0 0 0 2 5 6 7 9 5 5
5 79 100 100 100 100 100 100 100 100 86 99 100 100 100 53 5 47 60 95 55 70 61 6 5 5 86 100 100 100 77 38 6 73 100 100 57 0 0 0 3 0 0 1 2 5 3 5 5
19 100 100 100 100 100 100 100 100 100 100 100 100 83 26 5 8 25 47 100 93 96 26 74 100 100 100 100 100 59 33 87 58 2 0 0 3 0 0 0 0 0 0 2 5 5 5 2 1
14 87 100 100 100 100 100 96 88 100 100 41 14 99 32 48 12 7 85 92 100 100 100 100 100 100 100 88 100 100 41 3 0 0 0 6 0 0 0 0 0 0 0 0 5 3 5 5 0
5 100 100 100 100 100 100 90 87 85 94 81 48 72 18 30 95 98 26 91 77 87 74 90 32 28 75 77 63 2 0 0 0 4 0 0 0 0 0 0 0 0 0 3 0 0 4 5 6
48 70 93 100 34 100 88 89 45 88 73 26 79 95 94 6 61 75 52 48 57 96 22 1 0 0 0 0 0 0 0 0 0 0 0 0 0 0 0 0 0 0 0 2 4 1 0 0 3
99 94 100 95 100 100 100 86 80 85 29 22 22 93 74 95 11 43 32 10 2 8 7 5 8 5 5 0 0 0 0 0 0 0 0 0 0 0 0 0 0 0 0 5 1 1 0 1 0
100 98 7 100 99 94 58 100 100 8 100 2 0 94 100 83 3 0 4 14 81 5 4 0 0 0 0 0 0 0 0 0 0 0 0 0 0 0 0 0 0 0 0 1 0 0 2 5 5
100 92 88 87 73 79 86 7 45 100 36 96 59 72 22 7 99 2 8 94 46 0 1 10 2 0 0 0 0 0 0 0 0 0 0 0 74 15 100 0 0 0 0 5 0 0 0 76 33
81 100 98 100 97 0 4 4 0 2 0 73 64 60 2 33 2 0 0 0 1 0 68 0 8 0 4 0 0 0 0 0 0 0 0 0 94 44 3 1 2 66 83 54 12 56 6 100 98
100 100 100 100 100 0 1 5 4 10 4 6 34 0 0 8 36 54 0 0 1 20 64 0 12 0 20 34 0 0 0 0 0 54 0 7 100 46 88 90 87 47 100 50 91 87 40 100 99
95 100 100 100 2 8 11 1 5 11 54 4 0 0 0 0 0 2 36 2 0 0 2 13 57 0 92 90 0 0 0 28 36 8 76 96 53 100 40 10 38 92 100 98 98 79 82 9 9
100 98 44 45 0 54 22 2 0 63 65 2 0 0 0 0 0 0 5 0 0 0 80 100 0 0 45 100 0 100 100 68 10 89 4 8 100 100 81 65 15 32 34 100 51 54 0 25 0
100 98 100 53 43 95 63 43 0 2 8 2 0 0 0 0 0 0 2 0 0 0 35 10 0 0 0 0 8 14 13 99 84 94 85 0 57 72 100 0 28 36 31 100 19 12 0 6 56
35 96 12 1 18 90 36 83 0 4 2 0 0 0 0 0 0 0 0 0 0 0 0 0 0 0 0 0 0 0 0 2 98 58 16 2 2 5 0 0 0 87 3 55 2 100 98 37 2
0 34 90 65 36 57 56 100 98 71 1 2 0 0 0 0 0 0 0 0 0 0 0 0 0 0 0 0 4 0 0 6 85 11 89 49 85 23 0 0 0 30 5 6 76 1 84 68 8
0 8 30 95 99 72 100 100 100 90 2 1 0 0 0 0 0 0 0 0 0 0 0 0 0 24 0 0 0 0 45 25 54 84 83 2 24 16 0 48 91 98 76 73 99 0 99 0 0
0 1 58 10 85 99 100 100 100 6 5 4 2 0 0 0 0 0 0 0 0 0 0 0 0 1 56 0 0 2 17 99 76 45 29 88 0 86 6 49 14 100 98 12 97 32 92 0 0
0 4 5 100 100 69 63 100 100 3 5 5 3 0 0 0 0 0 0 0 0 0 0 0 0 0 22 0 0 1 0 30 0 0 12 4 95 1 29 10 100 94 56 65 100 6 0 0 0
0 84 61 100 98 100 74 5 1 63 0 0 1 0 0 0 0 0 0 0 0 0 0 0 0 0 0 0 2 0 0 40 0 1 61 23 2 100 67 6 83 74 70 84 1 0 0 0 0
0 4 26 100 87 6 93 72 64 79 3 0 1 0 0 0 0 0 0 0 0 0 0 0 0 0 0 0 0 18 97 51 100 19 100 82 2 1 13 26 65 100 100 72 11 0 4 0 0
0 0 38 99 100 11 14 98 5 48 1 0 0 0 0 0 0 0 0 0 0 0 0 0 0 0 0 0 6 0 0 0 32 6 35 96 5 0 38 12 59 72 97 97 44 5 0 0 0
0 0 13 89 99 98 35 86 78 85 100 48 0 0 0 0 0 0 0 0 0 0 0 0 0 0 0 0 0 0 0 0 0 38 31 0 0 0 75 100 3 0 5 78 82 100 20 42 10
0 0 0 42 95 85 67 82 8 39 61 100 74 0 0 0 0 0 0 0 0 0 0 0 0 0 0 0 0 0 56 0 0 59 0 0 0 0 0 0 0 0 0 2 16 80 72 100 82
0 0 0 0 5 56 97 80 41 100 90 100 96 83 4 0 0 0 0 0 0 0 0 0 0 0 0 0 0 0 0 0 0 0 0 0 0 0 0 0 5 5 6 78 27 70 99 31 54
1 0 0 0 0 4 1 88 9 27 4 100 100 100 96 45 0 2 0 0 0 0 0 0 0 0 0 0 0 0 0 0 0 0 0 0 0 0 0 5 51 0 25 8 42 100 91 48 100
31 0 0 0 4 5 63 73 0 63 39 100 43 86 33 74 72 0 0 0 0 0 0 0 0 0 0 0 0 0 0 0 0 0 0 0 1 0 0 0 37 70 1 10 5 8 68 27 77
42 98 0 0 1 0 2 16 65 71 73 100 91 87 63 26 73 46 0 0 0 0 0 0 0 0 0 0 0 0 0 0 0 0 0 0 0 0 0 62 0 0 4 3 5 40 44 99 100
0 5 3 0 0 0 0 1 0 48 68 30 5 69 96 59 31 4 0 0 0 0 0 0 0 0 0 0 0 0 0 0 0 0 0 0 0 0 0 16 0 0 5 5 5 5 5 7 9
0 0 5 0 0 0 0 0 32 100 19 25 96 88 80 1 0 5 2 0 0 0 0 0 0 0 0 0 0 0 0 0 0 0 0 0 0 0 0 0 3 11 0 0 1 4 5 16 29